Powrót do katalogu

SL-8 R/B

AktywnyLEO
NORAD 13168·ROCKET BODY·🇷🇺 Russia

Wystrzelony May 6, 1982 z Plesetsk Cosmodrome

Loading…

Następne Przeloty (najbliższe 24 godziny)

TLE

ŚwieżeSource: Space-Track

Epoka: Sep 14, 2026, 15:28 UTC

1 13168U 82040J   26257.64488570 -.00000082  00000-0 -61775-3 0  9998
2 13168  74.0471 228.7384 0135244 119.5390 241.9208 12.22880467980356

Śledź SL-8 R/B w czasie rzeczywistym z AllMySat

Download on the App Store